星链-3881 (STARLINK-3881 )

导读

STARLINK-3881是美国太空探索技术公司星链计划中的一颗卫星,于2022年5月6日发射升空,属于星链星座组网卫星,旨在为全球提供高速低延迟互联网服务,尤其覆盖偏远地区与网络基础设施薄弱区域。它运行在近地轨道,依托星链大规模星座布局,助力实现全球互联的卫星网络目标。

Basic Information
目录编号:
52472
目录名称:
STARLINK-3881
国际标识:
2022-049X
轨道中心:
EARTH
卫星名称:
星链-3881
卫星全名:
星链-3881 (STARLINK-3881 )
卫星状态:
在轨 (已飞行1503 天)
发射日期:
2022-05-06 UTC
国别 :
美国 (US)
星等 :
--
Orbit Information
数据来源 国际轨道数据 AOE轨道数据
星历时间 2026-06-17T01:37:32+0800
23小时前
查看轨道信息
2026-06-15T03:00:00+0800
2天前
查看轨道信息
半长轴 6917.87km 6917.841km
偏心率 0.0001668 0.0001257
轨道倾角 53.162° 53.157°
近地点辐角 102.553° 94.044°
升交点赤经 334.395° 343.133°
平近点角 257.565° 147.736°
近地点 538.579km 538.834km
远地点 540.887km 540.574km
周期 95.437分钟 95.437分钟
每日圈数 15.088437 15.088532
Detailed Information
固有亮度:
5
最大亮度:
2.5
卫星平台:
Starlink v1.5
覆盖范围:
全球
运营商:
太空探索技术公司
运营商所在国:
美国
制造商(研发单位):
太空探索技术公司
制造商所在国:
美国
使用方式:
暂无
Satellite Introduction
星链(Starlink)计划是由太空探索技术公司(SpaceX)提出的一个巨型低轨卫星互联网星座项目,计划在2019年至2024年间在太空搭建由约1.2万颗卫星组成的“星链”网络,其中1584颗将部署在地球上空550千米处的近地轨道,并从2020年开始工作。该卫星仍在工作。
2D Orbit Map
3D Orbit Map
Orbit Altitude Analysis Chart
Orbit Inclination Analysis Chart
Orbit Comprehensive Analysis Chart
View Comprehensive Chart